Corpus Christi, TX

11:41 AM CST on December 03, 2016 (GMT -0600)
North Padre Island

Weather History for KOPM - February, 2013

Change the Weather History Date:

Thursday, February 14, 2013

  Actual Average (KHRL) Record (KHRL)
Temperature  
Mean Temperature 62 °F 63 °F  
Max Temperature 64 °F 74 °F 90 °F (2005)
Min Temperature 60 °F 53 °F 34 °F (1917)
Degree Days  
Heating Degree Days 3 4  
Month to date heating degree days 69  
Since 1 July heating degree days 517  
Cooling Degree Days 0 3  
Month to date cooling degree days 33  
Year to date cooling degree days 82  
Growing Degree Days 12 (Base 50)    
Moisture  
Dew Point 45 °F    
Average Humidity 53    
Maximum Humidity 59    
Minimum Humidity 45    
Precipitation  
Precipitation 0.00 in 0.06 in 0.97 in (1969)
Month to date precipitation 0.83  
Year to date precipitation 1.89  
Sea Level Pressure  
Sea Level Pressure 30.08 in    
Wind  
Wind Speed 7 mph (NE)    
Max Wind Speed 15 mph    
Max Gust Speed 13 mph    
Visibility 10 miles    
Events      
T = Trace of Precipitation, MM = Missing Value Source: NWS Daily Summary

Daily Weather History Graph

Daily Weather History Graph

Search for Another Location

Airport or City:

Trip Planner

Search our weather history database for the weather conditions in past years. The results will help you decide how hot, cold, wet, or windy it might be!

Date:

Astronomy

Feb. 14, 2013 Rise Set
Actual Time 7:04 AM CST 6:19 PM CST
Civil Twilight 6:40 AM CST 6:43 PM CST
Nautical Twilight 6:13 AM CST 7:10 PM CST
Astronomical Twilight 5:46 AM CST 7:37 PM CST
Moon 9:38 AM CST (2/14) 10:49 PM CST (2/14)
Length of Visible Light 12h 02m
Length of Day
11h 15m
Waxing Crescent, 22% of the Moon is Illuminated
Feb 14
Waxing Crescent
Feb 17
First Quarter
Feb 25
Full
Mar 4
Last Quarter
Mar 11
New

Hourly Weather History & Observations

Time (CST) Temp. Dew Point Humidity Pressure Visibility Wind Dir Wind Speed Gust Speed Precip Events Conditions
12:15 AM 60.8 °F 46.4 °F 59% 30.09 in 10.0 mi NNE 6.9 mph - N/A   Clear
12:35 AM 60.8 °F 46.4 °F 59% 30.09 in 10.0 mi NNE 5.8 mph - N/A   Clear
12:55 AM 60.8 °F 46.4 °F 59% 30.09 in 10.0 mi NNE 6.9 mph 12.7 mph N/A   Mostly Cloudy
1:15 AM 60.8 °F 46.4 °F 59% 30.09 in 10.0 mi NNE 6.9 mph 12.7 mph N/A   Mostly Cloudy
1:35 AM 60.8 °F 46.4 °F 59% 30.09 in 10.0 mi NNE 5.8 mph - N/A   Partly Cloudy
1:55 AM 60.8 °F 46.4 °F 59% 30.10 in 10.0 mi North 4.6 mph - N/A   Clear
2:15 AM 60.8 °F 46.4 °F 59% 30.08 in 10.0 mi NNE 4.6 mph 11.5 mph N/A   Clear
2:35 AM 60.8 °F 46.4 °F 59% 30.08 in 10.0 mi NNE 5.8 mph 11.5 mph N/A   Clear
2:55 AM 60.8 °F 44.6 °F 55% 30.07 in 10.0 mi NNE 6.9 mph - N/A   Clear
3:15 AM 60.8 °F 44.6 °F 55% 30.07 in 10.0 mi NNE 8.1 mph - N/A   Clear
3:35 AM 60.8 °F 44.6 °F 55% 30.06 in 10.0 mi NNE 6.9 mph - N/A   Clear
3:55 AM 60.8 °F 46.4 °F 59% 30.06 in 10.0 mi Variable 4.6 mph - N/A   Clear
4:15 AM 60.8 °F 46.4 °F 59% 30.05 in 10.0 mi North 4.6 mph 11.5 mph N/A   Clear
4:35 AM 60.8 °F 46.4 °F 59% 30.06 in 10.0 mi North 5.8 mph - N/A   Clear
4:55 AM 60.8 °F 44.6 °F 55% 30.07 in 10.0 mi NNE 6.9 mph - N/A   Clear
5:15 AM 60.8 °F 46.4 °F 59% 30.07 in 10.0 mi NNE 6.9 mph - N/A   Clear
5:35 AM 60.8 °F 46.4 °F 59% 30.07 in 10.0 mi NNE 4.6 mph 11.5 mph N/A   Clear
5:55 AM 60.8 °F 44.6 °F 55% 30.07 in 10.0 mi NNE 8.1 mph - N/A   Clear
6:15 AM 60.8 °F 44.6 °F 55% 30.07 in 10.0 mi NNE 6.9 mph - N/A   Clear
6:35 AM 60.8 °F 44.6 °F 55% 30.08 in 10.0 mi NNE 5.8 mph - N/A   Clear
6:55 AM 60.8 °F 44.6 °F 55% 30.08 in 10.0 mi NNE 5.8 mph - N/A   Clear
7:15 AM 60.8 °F 44.6 °F 55% 30.09 in 10.0 mi NNE 6.9 mph - N/A   Clear
7:35 AM 62.6 °F 46.4 °F 55% 30.10 in 10.0 mi Variable 6.9 mph - N/A   Clear
7:55 AM 62.6 °F 44.6 °F 52% 30.11 in - NNE 6.9 mph - N/A   Clear
8:15 AM 62.6 °F 44.6 °F 52% 30.11 in 10.0 mi NNE 5.8 mph 11.5 mph N/A   Clear
8:35 AM 62.6 °F 44.6 °F 52% 30.12 in 10.0 mi NNE 6.9 mph - N/A   Clear
8:55 AM 62.6 °F 46.4 °F 55% 30.13 in 10.0 mi NNE 5.8 mph - N/A   Clear
9:15 AM 62.6 °F 46.4 °F 55% 30.13 in 10.0 mi NNE 5.8 mph - N/A   Clear
9:35 AM 62.6 °F 46.4 °F 55% 30.14 in 10.0 mi NNE 5.8 mph - N/A   Clear
9:55 AM 62.6 °F 46.4 °F 55% 30.14 in 10.0 mi NNE 5.8 mph - N/A   Clear
10:15 AM 62.6 °F 46.4 °F 55% 30.14 in 10.0 mi Variable 5.8 mph - N/A   Clear
10:35 AM 62.6 °F 46.4 °F 55% 30.15 in 10.0 mi NNE 5.8 mph - N/A   Clear
10:55 AM 62.6 °F 44.6 °F 52% 30.15 in 10.0 mi NNE 5.8 mph - N/A   Clear
11:15 AM 62.6 °F 44.6 °F 52% 30.14 in 10.0 mi NNE 5.8 mph - N/A   Clear
11:35 AM 62.6 °F 44.6 °F 52% 30.14 in 10.0 mi NNE 6.9 mph - N/A   Clear
11:55 AM 62.6 °F 42.8 °F 48% 30.14 in 10.0 mi NNE 9.2 mph - N/A   Clear
12:15 PM 64.4 °F 44.6 °F 49% 30.13 in 10.0 mi North 4.6 mph - N/A   Clear
12:35 PM 62.6 °F 46.4 °F 55% 30.12 in 10.0 mi NNE 3.5 mph - N/A   Clear
12:55 PM 64.4 °F 46.4 °F 52% 30.11 in 10.0 mi NE 6.9 mph - N/A   Clear
1:15 PM 64.4 °F 46.4 °F 52% 30.10 in 10.0 mi Calm Calm - N/A   Clear
1:35 PM 64.4 °F 46.4 °F 52% 30.09 in 10.0 mi NNE 4.6 mph - N/A   Clear
1:55 PM 64.4 °F 46.4 °F 52% 30.08 in 10.0 mi NNE 4.6 mph - N/A   Clear
2:15 PM 64.4 °F 44.6 °F 49% 30.07 in 10.0 mi NNE 4.6 mph - N/A   Clear
2:35 PM 64.4 °F 44.6 °F 49% 30.07 in 10.0 mi NNE 5.8 mph - N/A   Clear
2:55 PM 64.4 °F 44.6 °F 49% 30.06 in 10.0 mi NNE 6.9 mph - N/A   Clear
3:15 PM 64.4 °F 44.6 °F 49% 30.05 in 10.0 mi NNE 8.1 mph - N/A   Clear
3:35 PM 64.4 °F 44.6 °F 49% 30.05 in 10.0 mi NE 8.1 mph - N/A   Clear
3:55 PM 64.4 °F 42.8 °F 45% 30.06 in 10.0 mi NNE 8.1 mph - N/A   Clear
4:15 PM 64.4 °F 44.6 °F 49% 30.06 in 10.0 mi NE 10.4 mph - N/A   Clear
4:35 PM 64.4 °F 44.6 °F 49% 30.05 in 10.0 mi NE 10.4 mph - N/A   Clear
4:55 PM 64.4 °F 42.8 °F 45% 30.05 in 10.0 mi NE 9.2 mph - N/A   Clear
5:15 PM 64.4 °F 42.8 °F 45% 30.05 in 10.0 mi NE 9.2 mph - N/A   Clear
5:35 PM 64.4 °F 42.8 °F 45% 30.05 in 10.0 mi NE 11.5 mph - N/A   Clear
5:55 PM 64.4 °F 44.6 °F 49% 30.05 in 10.0 mi NE 11.5 mph - N/A   Clear
6:15 PM 64.4 °F 42.8 °F 45% 30.05 in 10.0 mi NE 11.5 mph - N/A   Clear
6:35 PM 64.4 °F 44.6 °F 49% 30.06 in 10.0 mi NE 12.7 mph - N/A   Clear
6:55 PM 64.4 °F 44.6 °F 49% 30.05 in 10.0 mi ENE 12.7 mph - N/A   Clear
7:15 PM 64.4 °F 42.8 °F 45% 30.06 in 10.0 mi ENE 10.4 mph - N/A   Clear
7:35 PM 64.4 °F 44.6 °F 49% 30.05 in 10.0 mi ENE 11.5 mph - N/A   Clear
7:55 PM 64.4 °F 42.8 °F 45% 30.06 in 10.0 mi ENE 12.7 mph - N/A   Clear
8:15 PM 64.4 °F 44.6 °F 49% 30.06 in 10.0 mi ENE 11.5 mph - N/A   Clear
8:35 PM 64.4 °F 44.6 °F 49% 30.06 in 10.0 mi ENE 12.7 mph - N/A   Clear
8:55 PM 64.4 °F 46.4 °F 52% 30.06 in 10.0 mi ENE 13.8 mph - N/A   Clear
9:15 PM 64.4 °F 46.4 °F 52% 30.06 in 10.0 mi East 13.8 mph - N/A   Clear
9:35 PM 64.4 °F 46.4 °F 52% 30.07 in 10.0 mi East 13.8 mph - N/A   Clear
9:55 PM 64.4 °F 48.2 °F 56% 30.07 in 10.0 mi East 13.8 mph - N/A   Clear
10:15 PM 64.4 °F 46.4 °F 52% 30.07 in 10.0 mi East 12.7 mph - N/A   Clear
10:35 PM 64.4 °F 46.4 °F 52% 30.08 in 10.0 mi East 12.7 mph - N/A   Clear
10:55 PM 64.4 °F 48.2 °F 56% 30.08 in 10.0 mi East 12.7 mph - N/A   Clear
11:15 PM 64.4 °F 48.2 °F 56% 30.06 in 10.0 mi East 15.0 mph - N/A   Clear
11:35 PM 64.4 °F 48.2 °F 56% 30.06 in 10.0 mi East 13.8 mph - N/A   Clear
11:55 PM 64.4 °F 50.0 °F 59% 30.06 in 10.0 mi East 12.7 mph - N/A   Clear